Time,TemperatureF,DewpointF,PressureIn,WindDirection,WindDirectionDegrees,WindSpeedMPH,WindSpeedGustMPH,Humidity,HourlyPrecipIn,Conditions,Clouds,dailyrainin,SoftwareType,DateUTC
2014-01-10 00:01:00,30.7,27.0,30.36,SE,146,0.0,0.0,86,0.00,,,0.00,WeatherCatV1.22B15,2014-01-10 05:01:00,
2014-01-10 00:02:00,30.7,27.0,30.36,ESE,122,0.0,1.0,86,0.00,,,0.00,WeatherCatV1.22B15,2014-01-10 05:02:00,
2014-01-10 00:06:00,30.6,27.2,30.36,SE,136,0.0,3.0,87,0.00,,,0.00,WeatherCatV1.22B15,2014-01-10 05:06:00,
2014-01-10 00:08:00,30.6,27.2,30.36,SSE,152,0.0,3.0,87,0.00,,,0.00,WeatherCatV1.22B15,2014-01-10 05:08:00,
2014-01-10 00:09:00,30.6,27.2,30.36,SSE,152,0.0,1.0,87,0.00,,,0.00,WeatherCatV1.22B15,2014-01-10 05:09:00,
2014-01-10 00:13:00,30.6,27.2,30.36,SW,217,0.0,3.0,87,0.00,,,0.00,WeatherCatV1.22B15,2014-01-10 05:13:00,
2014-01-10 00:18:00,30.5,27.1,30.35,SE,131,0.0,0.0,87,0.00,,,0.00,WeatherCatV1.22B15,2014-01-10 05:18:00,
2014-01-10 00:23:00,30.6,27.2,30.35,SE,129,1.0,2.0,87,0.00,,,0.00,WeatherCatV1.22B15,2014-01-10 05:23:00,
2014-01-10 00:28:00,30.6,27.2,30.35,SE,134,0.0,0.0,87,0.00,,,0.00,WeatherCatV1.22B15,2014-01-10 05:28:00,
2014-01-10 00:33:00,30.6,27.2,30.35,SE,134,0.0,0.0,87,0.00,,,0.00,WeatherCatV1.22B15,2014-01-10 05:33:00,
2014-01-10 00:38:00,30.6,27.2,30.34,ESE,111,1.0,4.0,87,0.00,,,0.00,WeatherCatV1.22B15,2014-01-10 05:38:00,
2014-01-10 00:43:00,30.7,27.3,30.34,SSE,150,0.0,0.0,87,0.00,,,0.00,WeatherCatV1.22B15,2014-01-10 05:43:00,
2014-01-10 00:48:00,30.8,27.4,30.34,SSE,153,0.0,1.0,87,0.00,,,0.00,WeatherCatV1.22B15,2014-01-10 05:48:00,
2014-01-10 00:53:00,30.8,27.4,30.34,SE,134,0.0,0.0,87,0.00,,,0.00,WeatherCatV1.22B15,2014-01-10 05:53:00,
2014-01-10 00:58:00,30.8,27.4,30.33,SE,134,0.0,0.0,87,0.00,,,0.00,WeatherCatV1.22B15,2014-01-10 05:58:00,
2014-01-10 01:03:00,30.8,27.4,30.33,SSW,200,0.0,0.0,87,0.00,,,0.00,WeatherCatV1.22B15,2014-01-10 06:03:00,
2014-01-10 01:08:00,30.8,27.4,30.33,SSE,150,0.0,0.0,87,0.00,,,0.00,WeatherCatV1.22B15,2014-01-10 06:08:00,
2014-01-10 01:13:00,30.9,27.5,30.33,SE,129,2.0,3.0,87,0.00,,,0.00,WeatherCatV1.22B15,2014-01-10 06:13:00,
2014-01-10 01:18:00,31.0,27.6,30.33,SE,145,2.0,2.0,87,0.00,,,0.00,WeatherCatV1.22B15,2014-01-10 06:18:00,
2014-01-10 01:23:00,31.1,27.7,30.33,SSE,148,0.0,2.0,87,0.00,,,0.00,WeatherCatV1.22B15,2014-01-10 06:23:00,
2014-01-10 01:28:00,31.1,27.7,30.32,ESE,123,0.0,0.0,87,0.00,,,0.00,WeatherCatV1.22B15,2014-01-10 06:28:00,
2014-01-10 01:33:00,31.1,27.7,30.32,ESE,123,0.0,0.0,87,0.00,,,0.00,WeatherCatV1.22B15,2014-01-10 06:33:00,
2014-01-10 01:38:00,31.2,27.8,30.32,ESE,122,0.0,0.0,87,0.00,,,0.00,WeatherCatV1.22B15,2014-01-10 06:38:00,
2014-01-10 01:43:00,31.2,27.8,30.32,ESE,122,0.0,1.0,87,0.00,,,0.00,WeatherCatV1.22B15,2014-01-10 06:43:00,
2014-01-10 01:48:00,31.2,27.8,30.32,ESE,123,0.0,0.0,87,0.00,,,0.00,WeatherCatV1.22B15,2014-01-10 06:48:00,
2014-01-10 01:53:00,31.2,27.8,30.32,SE,128,0.0,0.0,87,0.00,,,0.00,WeatherCatV1.22B15,2014-01-10 06:53:00,
2014-01-10 01:58:00,31.2,27.8,30.32,ESE,122,0.0,3.0,87,0.00,,,0.00,WeatherCatV1.22B15,2014-01-10 06:58:00,
2014-01-10 02:03:00,31.1,27.7,30.32,ESE,122,0.0,2.0,87,0.00,,,0.00,WeatherCatV1.22B15,2014-01-10 07:03:00,
2014-01-10 02:08:00,31.1,27.7,30.32,ESE,122,0.0,0.0,87,0.00,,,0.00,WeatherCatV1.22B15,2014-01-10 07:08:00,
2014-01-10 02:13:00,31.1,27.7,30.32,ESE,122,1.0,2.0,87,0.00,,,0.00,WeatherCatV1.22B15,2014-01-10 07:13:00,
2014-01-10 02:18:00,31.1,27.7,30.32,SE,134,0.0,3.0,87,0.00,,,0.00,WeatherCatV1.22B15,2014-01-10 07:18:00,
2014-01-10 02:23:00,31.1,27.7,30.32,SE,140,1.0,1.0,87,0.00,,,0.00,WeatherCatV1.22B15,2014-01-10 07:23:00,
2014-01-10 02:28:00,31.1,27.7,30.31,SE,140,0.0,0.0,87,0.00,,,0.00,WeatherCatV1.22B15,2014-01-10 07:28:00,
2014-01-10 02:33:00,31.1,28.0,30.31,SE,140,0.0,0.0,88,0.00,,,0.00,WeatherCatV1.22B15,2014-01-10 07:33:00,
2014-01-10 02:38:00,31.1,27.7,30.32,SE,140,0.0,0.0,87,0.00,,,0.00,WeatherCatV1.22B15,2014-01-10 07:38:00,
2014-01-10 02:43:00,31.1,28.0,30.31,SE,140,0.0,2.0,88,0.00,,,0.00,WeatherCatV1.22B15,2014-01-10 07:43:00,
2014-01-10 02:48:00,31.0,27.9,30.31,SE,140,0.0,0.0,88,0.00,,,0.00,WeatherCatV1.22B15,2014-01-10 07:48:00,
2014-01-10 02:53:00,31.0,27.9,30.31,SE,139,0.0,0.0,88,0.00,,,0.00,WeatherCatV1.22B15,2014-01-10 07:53:00,
2014-01-10 02:58:00,31.0,27.9,30.31,SE,139,0.0,2.0,88,0.00,,,0.00,WeatherCatV1.22B15,2014-01-10 07:58:00,
2014-01-10 03:03:00,31.1,28.0,30.31,SE,139,0.0,0.0,88,0.00,,,0.00,WeatherCatV1.22B15,2014-01-10 08:03:00,
2014-01-10 03:08:00,31.1,28.0,30.31,SE,139,0.0,0.0,88,0.00,,,0.00,WeatherCatV1.22B15,2014-01-10 08:08:00,
2014-01-10 03:13:00,31.1,28.0,30.31,SE,138,0.0,0.0,88,0.00,,,0.00,WeatherCatV1.22B15,2014-01-10 08:13:00,
2014-01-10 03:18:00,31.2,28.1,30.30,SE,138,1.0,1.0,88,0.00,,,0.00,WeatherCatV1.22B15,2014-01-10 08:18:00,
2014-01-10 03:23:00,31.3,28.2,30.30,SE,139,0.0,0.0,88,0.00,,,0.00,WeatherCatV1.22B15,2014-01-10 08:23:00,
2014-01-10 03:28:00,31.3,28.2,30.30,SE,139,0.0,0.0,88,0.00,,,0.00,WeatherCatV1.22B15,2014-01-10 08:28:00,
2014-01-10 03:33:00,31.4,28.5,30.30,SE,126,0.0,3.0,89,0.00,,,0.00,WeatherCatV1.22B15,2014-01-10 08:33:00,
2014-01-10 03:38:00,31.4,28.5,30.30,ESE,108,1.0,3.0,89,0.00,,,0.00,WeatherCatV1.22B15,2014-01-10 08:38:00,
2014-01-10 03:43:00,31.5,28.6,30.29,ESE,120,0.0,3.0,89,0.00,,,0.00,WeatherCatV1.22B15,2014-01-10 08:43:00,
2014-01-10 03:48:00,31.6,28.7,30.29,ESE,120,2.0,2.0,89,0.00,,,0.00,WeatherCatV1.22B15,2014-01-10 08:48:00,
2014-01-10 03:53:00,31.8,28.9,30.29,SE,145,0.0,1.0,89,0.00,,,0.00,WeatherCatV1.22B15,2014-01-10 08:53:00,
2014-01-10 03:58:00,32.0,29.1,30.29,ESE,119,0.0,0.0,89,0.00,,,0.00,WeatherCatV1.22B15,2014-01-10 08:58:00,
2014-01-10 04:03:00,32.0,29.1,30.28,SE,140,0.0,0.0,89,0.00,,,0.00,WeatherCatV1.22B15,2014-01-10 09:03:00,
2014-01-10 04:08:00,32.2,29.3,30.28,ESE,122,0.0,3.0,89,0.00,,,0.00,WeatherCatV1.22B15,2014-01-10 09:08:00,
2014-01-10 04:13:00,32.3,29.4,30.28,ESE,121,0.0,0.0,89,0.00,,,0.00,WeatherCatV1.22B15,2014-01-10 09:13:00,
2014-01-10 04:18:00,32.3,29.4,30.27,ESE,121,0.0,1.0,89,0.00,,,0.00,WeatherCatV1.22B15,2014-01-10 09:18:00,
2014-01-10 04:23:00,32.3,29.4,30.27,SE,128,0.0,1.0,89,0.00,,,0.00,WeatherCatV1.22B15,2014-01-10 09:23:00,
2014-01-10 04:28:00,32.4,29.5,30.27,SE,145,0.0,2.0,89,0.00,,,0.00,WeatherCatV1.22B15,2014-01-10 09:28:00,
2014-01-10 04:33:00,32.4,29.5,30.27,ESE,123,2.0,2.0,89,0.00,,,0.00,WeatherCatV1.22B15,2014-01-10 09:33:00,
2014-01-10 04:38:00,32.4,29.5,30.27,SE,128,0.0,0.0,89,0.00,,,0.00,WeatherCatV1.22B15,2014-01-10 09:38:00,
2014-01-10 04:43:00,32.5,29.6,30.27,South,191,0.0,1.0,89,0.00,,,0.00,WeatherCatV1.22B15,2014-01-10 09:43:00,
2014-01-10 04:48:00,32.5,29.6,30.27,SE,133,1.0,2.0,89,0.00,,,0.00,WeatherCatV1.22B15,2014-01-10 09:48:00,
2014-01-10 04:53:00,32.5,29.6,30.27,ESE,121,2.0,3.0,89,0.00,,,0.00,WeatherCatV1.22B15,2014-01-10 09:53:00,
2014-01-10 04:58:00,32.7,29.8,30.27,ESE,117,0.0,0.0,89,0.00,,,0.00,WeatherCatV1.22B15,2014-01-10 09:58:00,
2014-01-10 05:03:00,32.7,29.8,30.27,ESE,115,0.0,4.0,89,0.00,,,0.00,WeatherCatV1.22B15,2014-01-10 10:03:00,
2014-01-10 05:08:00,32.9,30.0,30.27,South,173,0.0,4.0,89,0.00,,,0.00,WeatherCatV1.22B15,2014-01-10 10:08:00,
2014-01-10 05:13:00,32.9,30.0,30.27,SE,146,3.0,3.0,89,0.00,,,0.00,WeatherCatV1.22B15,2014-01-10 10:13:00,
2014-01-10 05:18:00,33.0,30.1,30.27,SSE,159,0.0,3.0,89,0.00,,,0.00,WeatherCatV1.22B15,2014-01-10 10:18:00,
2014-01-10 05:23:00,33.0,30.1,30.26,SE,136,1.0,3.0,89,0.00,,,0.00,WeatherCatV1.22B15,2014-01-10 10:23:00,
2014-01-10 05:28:00,33.1,30.2,30.26,SE,136,2.0,2.0,89,0.00,,,0.00,WeatherCatV1.22B15,2014-01-10 10:28:00,
2014-01-10 05:33:00,33.1,30.2,30.26,SE,142,2.0,3.0,89,0.00,,,0.00,WeatherCatV1.22B15,2014-01-10 10:33:00,
2014-01-10 05:38:00,33.1,30.2,30.26,East,96,0.0,2.0,89,0.00,,,0.00,WeatherCatV1.22B15,2014-01-10 10:38:00,
2014-01-10 05:43:00,33.2,30.3,30.26,WSW,251,0.0,3.0,89,0.00,,,0.00,WeatherCatV1.22B15,2014-01-10 10:43:00,
2014-01-10 05:48:00,33.2,30.3,30.25,ESE,121,0.0,4.0,89,0.00,,,0.00,WeatherCatV1.22B15,2014-01-10 10:48:00,
2014-01-10 05:53:00,33.3,30.7,30.26,ENE,68,0.0,3.0,90,0.00,,,0.00,WeatherCatV1.22B15,2014-01-10 10:53:00,
2014-01-10 05:58:00,33.3,30.4,30.25,SE,134,0.0,0.0,89,0.00,,,0.00,WeatherCatV1.22B15,2014-01-10 10:58:00,
2014-01-10 06:03:00,33.4,30.5,30.26,South,191,0.0,3.0,89,0.00,,,0.00,WeatherCatV1.22B15,2014-01-10 11:03:00,
2014-01-10 06:08:00,33.4,30.5,30.26,SSE,155,0.0,4.0,89,0.00,,,0.00,WeatherCatV1.22B15,2014-01-10 11:08:00,
2014-01-10 06:13:00,33.5,30.9,30.26,SE,128,0.0,0.0,90,0.00,,,0.00,WeatherCatV1.22B15,2014-01-10 11:13:00,
2014-01-10 06:18:00,33.5,30.9,30.26,SSW,202,0.0,0.0,90,0.00,,,0.00,WeatherCatV1.22B15,2014-01-10 11:18:00,
2014-01-10 06:23:00,33.5,30.9,30.26,ESE,122,3.0,3.0,90,0.00,,,0.00,WeatherCatV1.22B15,2014-01-10 11:23:00,
2014-01-10 06:28:00,33.6,31.0,30.26,SE,140,0.0,5.0,90,0.00,,,0.00,WeatherCatV1.22B15,2014-01-10 11:28:00,
2014-01-10 06:33:00,33.6,30.7,30.26,SW,217,0.0,2.0,89,0.00,,,0.00,WeatherCatV1.22B15,2014-01-10 11:33:00,
2014-01-10 06:38:00,33.6,30.7,30.26,South,184,0.0,2.0,89,0.00,,,0.00,WeatherCatV1.22B15,2014-01-10 11:38:00,
2014-01-10 06:43:00,33.7,30.8,30.25,SE,133,2.0,3.0,89,0.00,,,0.00,WeatherCatV1.22B15,2014-01-10 11:43:00,
2014-01-10 06:48:00,33.8,30.9,30.26,SE,140,0.0,1.0,89,0.00,,,0.00,WeatherCatV1.22B15,2014-01-10 11:48:00,
2014-01-10 06:53:00,33.9,31.3,30.26,SE,126,0.0,3.0,90,0.00,,,0.00,WeatherCatV1.22B15,2014-01-10 11:53:00,
2014-01-10 06:58:00,34.0,31.4,30.25,SE,127,1.0,2.0,90,0.00,,,0.00,WeatherCatV1.22B15,2014-01-10 11:58:00,
2014-01-10 07:03:00,34.0,31.1,30.25,SE,139,0.0,2.0,89,0.00,,,0.00,WeatherCatV1.22B15,2014-01-10 12:03:00,
2014-01-10 07:08:00,34.1,31.2,30.25,SE,146,0.0,0.0,89,0.00,,,0.00,WeatherCatV1.22B15,2014-01-10 12:08:00,
2014-01-10 07:13:00,34.2,31.3,30.26,SSW,211,1.0,2.0,89,0.00,,,0.00,WeatherCatV1.22B15,2014-01-10 12:13:00,
2014-01-10 07:18:00,34.2,31.3,30.26,SSW,203,2.0,2.0,89,0.00,,,0.00,WeatherCatV1.22B15,2014-01-10 12:18:00,
2014-01-10 07:23:00,34.3,31.4,30.26,SE,132,0.0,1.0,89,0.00,,,0.00,WeatherCatV1.22B15,2014-01-10 12:23:00,
2014-01-10 07:28:00,34.3,31.4,30.25,SE,134,0.0,0.0,89,0.00,,,0.00,WeatherCatV1.22B15,2014-01-10 12:28:00,
2014-01-10 07:33:00,34.3,31.4,30.26,SE,133,0.0,0.0,89,0.00,,,0.00,WeatherCatV1.22B15,2014-01-10 12:33:00,
2014-01-10 07:38:00,34.5,31.6,30.25,SE,129,2.0,3.0,89,0.00,,,0.00,WeatherCatV1.22B15,2014-01-10 12:38:00,
2014-01-10 07:43:00,34.5,31.6,30.25,SSE,150,0.0,0.0,89,0.00,,,0.00,WeatherCatV1.22B15,2014-01-10 12:43:00,
2014-01-10 07:48:00,34.6,31.7,30.25,SE,144,0.0,0.0,89,0.00,,,0.00,WeatherCatV1.22B15,2014-01-10 12:48:00,
2014-01-10 07:53:00,34.7,31.8,30.25,SE,134,0.0,0.0,89,0.00,,,0.00,WeatherCatV1.22B15,2014-01-10 12:53:00,
2014-01-10 07:58:00,34.8,31.9,30.25,ESE,117,0.0,3.0,89,0.00,,,0.00,WeatherCatV1.22B15,2014-01-10 12:58:00,
2014-01-10 08:03:00,34.8,31.9,30.25,SE,124,2.0,2.0,89,0.00,,,0.00,WeatherCatV1.22B15,2014-01-10 13:03:00,
2014-01-10 08:08:00,35.0,32.1,30.25,SE,124,0.0,0.0,89,0.00,,,0.00,WeatherCatV1.22B15,2014-01-10 13:08:00,
2014-01-10 08:13:00,35.1,32.2,30.25,SE,124,0.0,2.0,89,0.00,,,0.00,WeatherCatV1.22B15,2014-01-10 13:13:00,
2014-01-10 08:18:00,35.3,32.4,30.25,ESE,121,2.0,3.0,89,0.00,,,0.00,WeatherCatV1.22B15,2014-01-10 13:18:00,
2014-01-10 08:23:00,35.4,32.5,30.25,SE,138,0.0,4.0,89,0.00,,,0.00,WeatherCatV1.22B15,2014-01-10 13:23:00,
2014-01-10 08:28:00,35.4,32.5,30.25,SE,137,0.0,1.0,89,0.00,,,0.00,WeatherCatV1.22B15,2014-01-10 13:28:00,
2014-01-10 08:33:00,35.4,32.5,30.25,SE,129,2.0,3.0,89,0.00,,,0.00,WeatherCatV1.22B15,2014-01-10 13:33:00,
2014-01-10 08:38:00,35.6,32.7,30.26,SE,129,0.0,0.0,89,0.00,,,0.00,WeatherCatV1.22B15,2014-01-10 13:38:00,
2014-01-10 08:43:00,35.6,32.7,30.26,SE,129,0.0,0.0,89,0.00,,,0.00,WeatherCatV1.22B15,2014-01-10 13:43:00,
2014-01-10 08:48:00,35.7,32.8,30.26,SE,137,1.0,3.0,89,0.00,,,0.00,WeatherCatV1.22B15,2014-01-10 13:48:00,
2014-01-10 08:53:00,35.8,32.9,30.26,SE,125,1.0,2.0,89,0.00,,,0.00,WeatherCatV1.22B15,2014-01-10 13:53:00,
2014-01-10 08:58:00,35.9,33.0,30.26,ESE,118,2.0,3.0,89,0.00,,,0.00,WeatherCatV1.22B15,2014-01-10 13:58:00,
2014-01-10 09:03:00,36.0,33.1,30.26,East,100,3.0,3.0,89,0.00,,,0.00,WeatherCatV1.22B15,2014-01-10 14:03:00,
2014-01-10 09:08:00,36.1,33.2,30.25,SE,145,1.0,4.0,89,0.00,,,0.00,WeatherCatV1.22B15,2014-01-10 14:08:00,
2014-01-10 09:13:00,36.4,33.5,30.25,ESE,118,1.0,4.0,89,0.00,,,0.00,WeatherCatV1.22B15,2014-01-10 14:13:00,
2014-01-10 09:18:00,36.5,33.6,30.25,ESE,123,0.0,4.0,89,0.00,,,0.00,WeatherCatV1.22B15,2014-01-10 14:18:00,
2014-01-10 09:23:00,36.5,33.6,30.25,SE,125,0.0,3.0,89,0.00,,,0.00,WeatherCatV1.22B15,2014-01-10 14:23:00,
2014-01-10 09:28:00,36.6,33.7,30.25,SE,130,0.0,3.0,89,0.00,,,0.00,WeatherCatV1.22B15,2014-01-10 14:28:00,
2014-01-10 09:33:00,36.7,33.8,30.25,ESE,120,1.0,4.0,89,0.00,,,0.00,WeatherCatV1.22B15,2014-01-10 14:33:00,
2014-01-10 09:38:00,36.9,34.0,30.25,SE,144,2.0,4.0,89,0.00,,,0.00,WeatherCatV1.22B15,2014-01-10 14:38:00,
2014-01-10 09:43:00,36.9,34.0,30.25,ESE,122,0.0,2.0,89,0.00,,,0.00,WeatherCatV1.22B15,2014-01-10 14:43:00,
2014-01-10 09:48:00,37.0,34.1,30.25,SSE,165,2.0,2.0,89,0.00,,,0.01,WeatherCatV1.22B15,2014-01-10 14:48:00,
2014-01-10 09:53:00,37.2,34.3,30.25,SE,133,0.0,5.0,89,0.00,,,0.01,WeatherCatV1.22B15,2014-01-10 14:53:00,
2014-01-10 09:59:00,37.4,34.2,30.25,ESE,121,0.0,4.0,88,0.00,,,0.01,WeatherCatV1.22B15,2014-01-10 14:59:00,
2014-01-10 10:04:00,37.5,34.6,30.25,SE,141,3.0,4.0,89,0.00,,,0.02,WeatherCatV1.22B15,2014-01-10 15:04:00,
2014-01-10 10:09:00,37.6,34.4,30.25,SE,141,4.0,4.0,88,0.00,,,0.02,WeatherCatV1.22B15,2014-01-10 15:09:00,
2014-01-10 10:14:00,37.8,34.6,30.25,SE,131,1.0,5.0,88,0.00,,,0.02,WeatherCatV1.22B15,2014-01-10 15:14:00,
2014-01-10 10:19:00,37.9,34.7,30.25,SE,145,1.0,5.0,88,0.05,,,0.03,WeatherCatV1.22B15,2014-01-10 15:19:00,
2014-01-10 10:24:00,38.0,34.8,30.24,SE,126,2.0,3.0,88,0.05,,,0.03,WeatherCatV1.22B15,2014-01-10 15:24:00,
2014-01-10 10:29:00,38.2,35.0,30.24,East,84,2.0,4.0,88,0.04,,,0.03,WeatherCatV1.22B15,2014-01-10 15:29:00,
2014-01-10 10:34:00,38.4,35.2,30.24,SE,144,0.0,2.0,88,0.00,,,0.03,WeatherCatV1.22B15,2014-01-10 15:34:00,
2014-01-10 10:39:00,38.5,35.0,30.24,SSE,148,1.0,2.0,87,0.00,,,0.04,WeatherCatV1.22B15,2014-01-10 15:39:00,
2014-01-10 10:44:00,38.7,35.2,30.24,SSE,162,1.0,5.0,87,0.00,,,0.04,WeatherCatV1.22B15,2014-01-10 15:44:00,
2014-01-10 10:49:00,38.7,35.2,30.24,SSW,209,5.0,5.0,87,0.00,,,0.04,WeatherCatV1.22B15,2014-01-10 15:49:00,
2014-01-10 10:54:00,38.8,35.3,30.24,SSW,212,0.0,2.0,87,0.04,,,0.05,WeatherCatV1.22B15,2014-01-10 15:54:00,
2014-01-10 10:59:00,38.8,35.3,30.24,SSE,152,2.0,2.0,87,0.04,,,0.05,WeatherCatV1.22B15,2014-01-10 15:59:00,
2014-01-10 11:04:00,38.8,35.3,30.24,ESE,122,2.0,3.0,87,0.04,,,0.05,WeatherCatV1.22B15,2014-01-10 16:04:00,
2014-01-10 11:09:00,38.8,35.0,30.24,SSW,207,3.0,10.0,86,0.00,,,0.05,WeatherCatV1.22B15,2014-01-10 16:09:00,
2014-01-10 11:14:00,38.8,35.0,30.24,SSW,209,0.0,3.0,86,0.00,,,0.05,WeatherCatV1.22B15,2014-01-10 16:14:00,
2014-01-10 11:19:00,38.8,35.0,30.23,SE,126,2.0,4.0,86,0.00,,,0.05,WeatherCatV1.22B15,2014-01-10 16:19:00,
2014-01-10 11:24:00,38.8,35.0,30.23,SW,225,0.0,4.0,86,0.00,,,0.05,WeatherCatV1.22B15,2014-01-10 16:24:00,
2014-01-10 11:29:00,38.8,35.0,30.22,ESE,105,3.0,5.0,86,0.00,,,0.05,WeatherCatV1.22B15,2014-01-10 16:29:00,
2014-01-10 11:34:00,38.9,35.1,30.22,SE,140,3.0,5.0,86,0.00,,,0.05,WeatherCatV1.22B15,2014-01-10 16:34:00,
2014-01-10 11:39:00,39.0,35.2,30.22,SSE,157,0.0,4.0,86,0.00,,,0.06,WeatherCatV1.22B15,2014-01-10 16:39:00,
2014-01-10 11:44:00,39.0,35.2,30.21,SW,229,0.0,0.0,86,0.00,,,0.06,WeatherCatV1.22B15,2014-01-10 16:44:00,
2014-01-10 11:49:00,39.0,35.2,30.21,ESE,118,3.0,4.0,86,0.00,,,0.06,WeatherCatV1.22B15,2014-01-10 16:49:00,
2014-01-10 11:54:00,39.0,35.2,30.21,SE,136,0.0,1.0,86,0.00,,,0.06,WeatherCatV1.22B15,2014-01-10 16:54:00,
2014-01-10 11:59:00,39.1,35.3,30.20,SE,126,0.0,0.0,86,0.00,,,0.06,WeatherCatV1.22B15,2014-01-10 16:59:00,
2014-01-10 12:04:00,39.2,35.4,30.20,SSW,202,0.0,4.0,86,0.00,,,0.06,WeatherCatV1.22B15,2014-01-10 17:04:00,
2014-01-10 12:09:00,39.2,35.4,30.20,SW,234,0.0,4.0,86,0.00,,,0.07,WeatherCatV1.22B15,2014-01-10 17:09:00,
2014-01-10 12:14:00,39.3,35.5,30.19,SE,132,0.0,0.0,86,0.00,,,0.07,WeatherCatV1.22B15,2014-01-10 17:14:00,
2014-01-10 12:19:00,39.5,35.7,30.19,SE,137,0.0,2.0,86,0.00,,,0.07,WeatherCatV1.22B15,2014-01-10 17:19:00,
2014-01-10 12:24:00,39.7,35.9,30.19,SE,134,0.0,2.0,86,0.00,,,0.07,WeatherCatV1.22B15,2014-01-10 17:24:00,
2014-01-10 12:29:00,39.7,35.9,30.19,ESE,112,1.0,3.0,86,0.00,,,0.07,WeatherCatV1.22B15,2014-01-10 17:29:00,
2014-01-10 12:34:00,39.7,35.9,30.19,SSE,153,0.0,4.0,86,0.00,,,0.07,WeatherCatV1.22B15,2014-01-10 17:34:00,
2014-01-10 12:39:00,39.8,36.0,30.18,SE,130,0.0,3.0,86,0.00,,,0.07,WeatherCatV1.22B15,2014-01-10 17:39:00,
2014-01-10 12:44:00,39.7,35.6,30.18,ENE,63,2.0,2.0,85,0.00,,,0.07,WeatherCatV1.22B15,2014-01-10 17:44:00,
2014-01-10 12:49:00,39.8,36.0,30.18,SE,130,2.0,5.0,86,0.00,,,0.07,WeatherCatV1.22B15,2014-01-10 17:49:00,
2014-01-10 12:54:00,39.8,36.0,30.17,SE,128,1.0,3.0,86,0.00,,,0.07,WeatherCatV1.22B15,2014-01-10 17:54:00,
2014-01-10 12:59:00,39.9,36.1,30.17,SE,132,0.0,3.0,86,0.00,,,0.07,WeatherCatV1.22B15,2014-01-10 17:59:00,
2014-01-10 13:04:00,40.0,36.2,30.17,SSE,149,3.0,3.0,86,0.00,,,0.07,WeatherCatV1.22B15,2014-01-10 18:04:00,
2014-01-10 13:09:00,40.0,35.9,30.17,SSW,198,0.0,0.0,85,0.00,,,0.07,WeatherCatV1.22B15,2014-01-10 18:09:00,
2014-01-10 13:14:00,40.1,36.0,30.16,ESE,111,0.0,2.0,85,0.00,,,0.07,WeatherCatV1.22B15,2014-01-10 18:14:00,
2014-01-10 13:19:00,40.1,36.0,30.16,SE,126,3.0,5.0,85,0.00,,,0.07,WeatherCatV1.22B15,2014-01-10 18:19:00,
2014-01-10 13:24:00,40.2,36.1,30.16,SE,127,2.0,6.0,85,0.00,,,0.07,WeatherCatV1.22B15,2014-01-10 18:24:00,
2014-01-10 13:29:00,40.2,36.1,30.16,SE,144,0.0,4.0,85,0.00,,,0.07,WeatherCatV1.22B15,2014-01-10 18:29:00,
2014-01-10 13:34:00,40.2,36.1,30.16,ESE,105,2.0,4.0,85,0.00,,,0.07,WeatherCatV1.22B15,2014-01-10 18:34:00,
2014-01-10 13:39:00,40.3,36.2,30.16,SE,141,0.0,2.0,85,0.00,,,0.07,WeatherCatV1.22B15,2014-01-10 18:39:00,
2014-01-10 13:44:00,40.3,36.2,30.15,SE,130,3.0,4.0,85,0.00,,,0.07,WeatherCatV1.22B15,2014-01-10 18:44:00,
2014-01-10 13:49:00,40.3,36.2,30.15,SE,126,4.0,4.0,85,0.00,,,0.07,WeatherCatV1.22B15,2014-01-10 18:49:00,
2014-01-10 13:54:00,40.4,36.2,30.15,SE,141,2.0,5.0,85,0.00,,,0.07,WeatherCatV1.22B15,2014-01-10 18:54:00,
2014-01-10 13:59:00,40.4,36.2,30.14,SSW,196,1.0,3.0,85,0.00,,,0.07,WeatherCatV1.22B15,2014-01-10 18:59:00,
2014-01-10 14:04:00,40.5,36.7,30.14,SE,140,0.0,2.0,86,0.00,,,0.07,WeatherCatV1.22B15,2014-01-10 19:04:00,
2014-01-10 14:09:00,40.5,36.7,30.14,SE,125,3.0,4.0,86,0.00,,,0.07,WeatherCatV1.22B15,2014-01-10 19:09:00,
2014-01-10 14:14:00,40.5,36.7,30.13,SSE,149,0.0,2.0,86,0.00,,,0.07,WeatherCatV1.22B15,2014-01-10 19:14:00,
2014-01-10 14:19:00,40.6,36.8,30.13,ESE,122,0.0,5.0,86,0.00,,,0.07,WeatherCatV1.22B15,2014-01-10 19:19:00,
2014-01-10 14:24:00,40.8,36.9,30.13,SE,133,2.0,5.0,86,0.00,,,0.07,WeatherCatV1.22B15,2014-01-10 19:24:00,
2014-01-10 14:29:00,40.9,37.0,30.13,ESE,105,4.0,4.0,86,0.00,,,0.07,WeatherCatV1.22B15,2014-01-10 19:29:00,
2014-01-10 14:34:00,40.8,36.7,30.12,SSE,152,0.0,0.0,85,0.00,,,0.07,WeatherCatV1.22B15,2014-01-10 19:34:00,
2014-01-10 14:39:00,40.8,36.7,30.12,SE,140,3.0,4.0,85,0.00,,,0.07,WeatherCatV1.22B15,2014-01-10 19:39:00,
2014-01-10 14:44:00,40.8,36.9,30.11,ESE,118,2.0,6.0,86,0.00,,,0.07,WeatherCatV1.22B15,2014-01-10 19:44:00,
2014-01-10 14:49:00,40.9,37.0,30.11,ESE,121,0.0,4.0,86,0.00,,,0.07,WeatherCatV1.22B15,2014-01-10 19:49:00,
2014-01-10 14:54:00,41.0,37.1,30.11,SE,146,3.0,9.0,86,0.00,,,0.07,WeatherCatV1.22B15,2014-01-10 19:54:00,
2014-01-10 14:59:00,40.9,37.0,30.11,SE,143,1.0,4.0,86,0.00,,,0.07,WeatherCatV1.22B15,2014-01-10 19:59:00,
2014-01-10 15:04:00,40.9,37.0,30.11,SE,136,3.0,6.0,86,0.00,,,0.07,WeatherCatV1.22B15,2014-01-10 20:04:00,
2014-01-10 15:09:00,40.9,37.0,30.11,ESE,122,0.0,4.0,86,0.00,,,0.07,WeatherCatV1.22B15,2014-01-10 20:09:00,
2014-01-10 15:14:00,40.9,37.0,30.11,SE,126,2.0,5.0,86,0.00,,,0.07,WeatherCatV1.22B15,2014-01-10 20:14:00,
2014-01-10 15:19:00,41.0,37.1,30.11,SE,130,0.0,3.0,86,0.00,,,0.07,WeatherCatV1.22B15,2014-01-10 20:19:00,
2014-01-10 15:24:00,41.0,37.1,30.11,ESE,105,2.0,5.0,86,0.00,,,0.07,WeatherCatV1.22B15,2014-01-10 20:24:00,
2014-01-10 15:29:00,41.0,37.1,30.11,SE,132,0.0,0.0,86,0.00,,,0.07,WeatherCatV1.22B15,2014-01-10 20:29:00,
2014-01-10 15:34:00,41.0,37.1,30.11,SE,128,0.0,0.0,86,0.00,,,0.07,WeatherCatV1.22B15,2014-01-10 20:34:00,
2014-01-10 15:39:00,41.0,37.1,30.11,South,169,0.0,0.0,86,0.00,,,0.07,WeatherCatV1.22B15,2014-01-10 20:39:00,
2014-01-10 15:44:00,41.2,37.6,30.11,SE,134,0.0,6.0,87,0.00,,,0.07,WeatherCatV1.22B15,2014-01-10 20:44:00,
2014-01-10 15:49:00,41.2,37.6,30.11,SE,125,0.0,3.0,87,0.00,,,0.07,WeatherCatV1.22B15,2014-01-10 20:49:00,
2014-01-10 15:54:00,41.2,37.6,30.12,ESE,122,1.0,2.0,87,0.00,,,0.07,WeatherCatV1.22B15,2014-01-10 20:54:00,
2014-01-10 15:59:00,41.4,37.8,30.11,ESE,116,0.0,3.0,87,0.00,,,0.07,WeatherCatV1.22B15,2014-01-10 20:59:00,
2014-01-10 16:04:00,41.3,37.7,30.11,ESE,123,0.0,3.0,87,0.00,,,0.07,WeatherCatV1.22B15,2014-01-10 21:04:00,
2014-01-10 16:09:00,41.4,37.8,30.11,SE,132,3.0,4.0,87,0.00,,,0.07,WeatherCatV1.22B15,2014-01-10 21:09:00,
2014-01-10 16:14:00,41.5,37.9,30.10,ESE,113,0.0,4.0,87,0.00,,,0.07,WeatherCatV1.22B15,2014-01-10 21:14:00,
2014-01-10 16:19:00,41.5,37.9,30.10,SE,146,0.0,3.0,87,0.00,,,0.07,WeatherCatV1.22B15,2014-01-10 21:19:00,
2014-01-10 16:24:00,41.4,37.8,30.09,SE,141,2.0,3.0,87,0.00,,,0.07,WeatherCatV1.22B15,2014-01-10 21:24:00,
2014-01-10 16:29:00,41.1,37.2,30.09,SE,136,3.0,3.0,86,0.00,,,0.07,WeatherCatV1.22B15,2014-01-10 21:29:00,
2014-01-10 16:34:00,41.0,37.1,30.08,SE,140,2.0,3.0,86,0.00,,,0.07,WeatherCatV1.22B15,2014-01-10 21:34:00,
2014-01-10 16:39:00,41.1,37.5,30.08,ESE,120,0.0,5.0,87,0.00,,,0.07,WeatherCatV1.22B15,2014-01-10 21:39:00,
2014-01-10 16:44:00,41.2,37.6,30.08,SE,134,2.0,5.0,87,0.00,,,0.07,WeatherCatV1.22B15,2014-01-10 21:44:00,
2014-01-10 16:49:00,41.2,37.6,30.08,ESE,109,4.0,5.0,87,0.00,,,0.07,WeatherCatV1.22B15,2014-01-10 21:49:00,
2014-01-10 16:54:00,41.2,37.6,30.08,SE,129,1.0,6.0,87,0.00,,,0.07,WeatherCatV1.22B15,2014-01-10 21:54:00,
2014-01-10 16:59:00,41.3,37.7,30.09,SE,141,0.0,5.0,87,0.00,,,0.07,WeatherCatV1.22B15,2014-01-10 21:59:00,
2014-01-10 17:04:00,41.4,37.8,30.08,ESE,116,4.0,6.0,87,0.00,,,0.07,WeatherCatV1.22B15,2014-01-10 22:04:00,
2014-01-10 17:09:00,41.4,37.8,30.07,SE,127,0.0,4.0,87,0.00,,,0.07,WeatherCatV1.22B15,2014-01-10 22:09:00,
2014-01-10 17:14:00,41.4,37.8,30.07,ESE,119,0.0,6.0,87,0.00,,,0.07,WeatherCatV1.22B15,2014-01-10 22:14:00,
2014-01-10 17:19:00,41.4,37.8,30.06,SE,138,0.0,3.0,87,0.00,,,0.07,WeatherCatV1.22B15,2014-01-10 22:19:00,
2014-01-10 17:24:00,41.3,37.7,30.06,SE,126,2.0,5.0,87,0.00,,,0.07,WeatherCatV1.22B15,2014-01-10 22:24:00,
2014-01-10 17:29:00,41.2,37.6,30.06,ESE,103,0.0,3.0,87,0.00,,,0.07,WeatherCatV1.22B15,2014-01-10 22:29:00,
2014-01-10 17:34:00,41.1,37.5,30.06,SE,132,2.0,4.0,87,0.00,,,0.07,WeatherCatV1.22B15,2014-01-10 22:34:00,
2014-01-10 17:39:00,41.2,37.6,30.06,ESE,116,3.0,4.0,87,0.00,,,0.07,WeatherCatV1.22B15,2014-01-10 22:39:00,
2014-01-10 17:44:00,41.3,37.7,30.06,SE,130,0.0,3.0,87,0.00,,,0.07,WeatherCatV1.22B15,2014-01-10 22:44:00,
2014-01-10 17:49:00,41.3,37.7,30.06,SSE,149,0.0,3.0,87,0.00,,,0.07,WeatherCatV1.22B15,2014-01-10 22:49:00,
2014-01-10 17:54:00,41.4,37.8,30.06,ESE,123,2.0,3.0,87,0.00,,,0.07,WeatherCatV1.22B15,2014-01-10 22:54:00,
2014-01-10 17:59:00,41.3,37.7,30.06,SE,132,3.0,3.0,87,0.00,,,0.07,WeatherCatV1.22B15,2014-01-10 22:59:00,
2014-01-10 18:04:00,41.4,38.1,30.05,SE,126,3.0,3.0,88,0.00,,,0.07,WeatherCatV1.22B15,2014-01-10 23:04:00,
2014-01-10 18:09:00,41.5,38.2,30.05,SE,140,2.0,3.0,88,0.00,,,0.07,WeatherCatV1.22B15,2014-01-10 23:09:00,
2014-01-10 18:14:00,41.6,38.3,30.05,SE,133,1.0,2.0,88,0.00,,,0.07,WeatherCatV1.22B15,2014-01-10 23:14:00,
2014-01-10 18:19:00,41.6,38.3,30.04,SE,125,1.0,2.0,88,0.00,,,0.07,WeatherCatV1.22B15,2014-01-10 23:19:00,
2014-01-10 18:24:00,41.6,38.3,30.04,SE,129,2.0,3.0,88,0.00,,,0.07,WeatherCatV1.22B15,2014-01-10 23:24:00,
2014-01-10 18:29:00,41.6,38.3,30.04,ESE,121,1.0,2.0,88,0.00,,,0.07,WeatherCatV1.22B15,2014-01-10 23:29:00,
2014-01-10 18:34:00,41.7,38.4,30.04,ESE,104,1.0,4.0,88,0.00,,,0.07,WeatherCatV1.22B15,2014-01-10 23:34:00,
2014-01-10 18:39:00,41.7,38.4,30.04,SE,126,2.0,2.0,88,0.00,,,0.07,WeatherCatV1.22B15,2014-01-10 23:39:00,
2014-01-10 18:44:00,41.7,38.4,30.03,ESE,122,1.0,5.0,88,0.00,,,0.07,WeatherCatV1.22B15,2014-01-10 23:44:00,
2014-01-10 18:49:00,41.8,38.5,30.03,ESE,119,3.0,6.0,88,0.00,,,0.07,WeatherCatV1.22B15,2014-01-10 23:49:00,
2014-01-10 18:54:00,41.9,38.6,30.02,SE,134,6.0,7.0,88,0.00,,,0.07,WeatherCatV1.22B15,2014-01-10 23:54:00,
2014-01-10 18:59:00,42.1,38.8,30.02,SE,140,7.0,10.0,88,0.00,,,0.07,WeatherCatV1.22B15,2014-01-10 23:59:00,
2014-01-10 19:04:00,42.1,38.8,30.01,SSE,160,2.0,5.0,88,0.00,,,0.07,WeatherCatV1.22B15,2014-01-11 00:04:00,
2014-01-10 19:09:00,42.2,38.9,30.02,SSE,156,1.0,11.0,88,0.00,,,0.07,WeatherCatV1.22B15,2014-01-11 00:09:00,
2014-01-10 19:14:00,42.2,38.9,30.01,SE,134,2.0,6.0,88,0.00,,,0.07,WeatherCatV1.22B15,2014-01-11 00:14:00,
2014-01-10 19:19:00,42.2,38.9,30.00,ESE,121,5.0,8.0,88,0.00,,,0.07,WeatherCatV1.22B15,2014-01-11 00:19:00,
2014-01-10 19:24:00,42.2,38.9,29.99,SSE,154,9.0,9.0,88,0.00,,,0.07,WeatherCatV1.22B15,2014-01-11 00:24:00,
2014-01-10 19:29:00,42.3,39.0,29.98,SE,126,5.0,5.0,88,0.00,,,0.07,WeatherCatV1.22B15,2014-01-11 00:29:00,
2014-01-10 19:34:00,42.3,39.0,29.98,ESE,119,2.0,6.0,88,0.00,,,0.07,WeatherCatV1.22B15,2014-01-11 00:34:00,
2014-01-10 19:39:00,42.4,39.1,29.98,SE,133,3.0,5.0,88,0.00,,,0.07,WeatherCatV1.22B15,2014-01-11 00:39:00,
2014-01-10 19:44:00,42.3,39.0,29.97,SE,130,4.0,7.0,88,0.00,,,0.07,WeatherCatV1.22B15,2014-01-11 00:44:00,
2014-01-10 19:49:00,42.3,39.0,29.97,SE,134,7.0,9.0,88,0.00,,,0.07,WeatherCatV1.22B15,2014-01-11 00:49:00,
2014-01-10 19:54:00,42.5,39.2,29.96,SE,128,6.0,8.0,88,0.00,,,0.07,WeatherCatV1.22B15,2014-01-11 00:54:00,
2014-01-10 19:59:00,42.5,38.9,29.97,East,94,3.0,7.0,87,0.00,,,0.07,WeatherCatV1.22B15,2014-01-11 00:59:00,
2014-01-10 20:04:00,42.6,39.0,29.97,ESE,119,3.0,6.0,87,0.00,,,0.07,WeatherCatV1.22B15,2014-01-11 01:04:00,
2014-01-10 20:09:00,42.7,39.4,29.97,SSE,158,3.0,8.0,88,0.00,,,0.07,WeatherCatV1.22B15,2014-01-11 01:09:00,
2014-01-10 20:14:00,42.7,39.1,29.97,SE,140,5.0,9.0,87,0.00,,,0.07,WeatherCatV1.22B15,2014-01-11 01:14:00,
2014-01-10 20:19:00,42.8,39.2,29.96,SE,132,5.0,7.0,87,0.00,,,0.07,WeatherCatV1.22B15,2014-01-11 01:19:00,
2014-01-10 20:24:00,42.8,39.2,29.97,SE,144,4.0,5.0,87,0.00,,,0.07,WeatherCatV1.22B15,2014-01-11 01:24:00,
2014-01-10 20:29:00,42.8,39.5,29.96,ESE,117,2.0,6.0,88,0.00,,,0.07,WeatherCatV1.22B15,2014-01-11 01:29:00,
2014-01-10 20:34:00,42.8,39.5,29.94,SE,130,3.0,5.0,88,0.00,,,0.07,WeatherCatV1.22B15,2014-01-11 01:34:00,
2014-01-10 20:39:00,42.8,39.5,29.94,SE,126,8.0,8.0,88,0.00,,,0.07,WeatherCatV1.22B15,2014-01-11 01:39:00,
2014-01-10 20:44:00,42.9,39.6,29.94,ESE,115,4.0,12.0,88,0.00,,,0.07,WeatherCatV1.22B15,2014-01-11 01:44:00,
2014-01-10 20:49:00,42.9,39.6,29.94,SE,144,2.0,9.0,88,0.00,,,0.07,WeatherCatV1.22B15,2014-01-11 01:49:00,
2014-01-10 20:54:00,42.8,39.5,29.94,SE,129,9.0,10.0,88,0.00,,,0.07,WeatherCatV1.22B15,2014-01-11 01:54:00,
2014-01-10 20:59:00,43.0,39.7,29.93,ESE,122,4.0,10.0,88,0.00,,,0.07,WeatherCatV1.22B15,2014-01-11 01:59:00,
2014-01-10 21:04:00,43.1,39.8,29.92,SSE,155,2.0,9.0,88,0.00,,,0.07,WeatherCatV1.22B15,2014-01-11 02:04:00,
2014-01-10 21:09:00,43.0,40.0,29.92,ESE,121,0.0,7.0,89,0.00,,,0.07,WeatherCatV1.22B15,2014-01-11 02:09:00,
2014-01-10 21:14:00,43.1,40.1,29.92,SSE,161,4.0,7.0,89,0.00,,,0.07,WeatherCatV1.22B15,2014-01-11 02:14:00,
2014-01-10 21:19:00,43.2,40.2,29.91,SE,130,3.0,13.0,89,0.00,,,0.07,WeatherCatV1.22B15,2014-01-11 02:19:00,
2014-01-10 21:24:00,43.2,40.2,29.90,ESE,118,4.0,8.0,89,0.00,,,0.07,WeatherCatV1.22B15,2014-01-11 02:24:00,
2014-01-10 21:29:00,43.2,40.2,29.90,ESE,120,4.0,7.0,89,0.00,,,0.07,WeatherCatV1.22B15,2014-01-11 02:29:00,
2014-01-10 21:34:00,43.2,40.2,29.90,ESE,110,2.0,7.0,89,0.00,,,0.07,WeatherCatV1.22B15,2014-01-11 02:34:00,
2014-01-10 21:39:00,43.2,40.2,29.88,SE,142,9.0,10.0,89,0.00,,,0.07,WeatherCatV1.22B15,2014-01-11 02:39:00,
2014-01-10 21:44:00,43.3,40.3,29.88,East,88,5.0,11.0,89,0.00,,,0.07,WeatherCatV1.22B15,2014-01-11 02:44:00,
2014-01-10 21:49:00,43.5,40.5,29.87,East,99,4.0,14.0,89,0.00,,,0.07,WeatherCatV1.22B15,2014-01-11 02:49:00,
2014-01-10 21:54:00,43.7,40.7,29.87,SE,145,4.0,13.0,89,0.00,,,0.07,WeatherCatV1.22B15,2014-01-11 02:54:00,
2014-01-10 21:59:00,43.8,40.8,29.86,East,92,6.0,11.0,89,0.00,,,0.07,WeatherCatV1.22B15,2014-01-11 02:59:00,
2014-01-10 22:04:00,43.9,40.9,29.85,ESE,123,11.0,15.0,89,0.00,,,0.07,WeatherCatV1.22B15,2014-01-11 03:04:00,
2014-01-10 22:09:00,43.9,40.9,29.85,SSE,153,7.0,10.0,89,0.00,,,0.07,WeatherCatV1.22B15,2014-01-11 03:09:00,
2014-01-10 22:14:00,44.2,41.2,29.84,ESE,110,5.0,10.0,89,0.00,,,0.07,WeatherCatV1.22B15,2014-01-11 03:14:00,
2014-01-10 22:19:00,44.2,41.2,29.84,SE,134,5.0,7.0,89,0.00,,,0.07,WeatherCatV1.22B15,2014-01-11 03:19:00,
2014-01-10 22:24:00,44.4,41.4,29.84,ESE,118,5.0,11.0,89,0.00,,,0.08,WeatherCatV1.22B15,2014-01-11 03:24:00,
2014-01-10 22:29:00,44.5,41.5,29.82,ESE,107,4.0,11.0,89,0.00,,,0.08,WeatherCatV1.22B15,2014-01-11 03:29:00,
2014-01-10 22:34:00,44.6,41.6,29.82,SE,134,9.0,11.0,89,0.00,,,0.08,WeatherCatV1.22B15,2014-01-11 03:34:00,
2014-01-10 22:39:00,44.6,41.6,29.81,SE,142,9.0,12.0,89,0.00,,,0.08,WeatherCatV1.22B15,2014-01-11 03:39:00,
2014-01-10 22:44:00,44.9,41.6,29.81,SE,136,4.0,9.0,88,0.00,,,0.08,WeatherCatV1.22B15,2014-01-11 03:44:00,
2014-01-10 22:49:00,45.0,41.7,29.81,SE,126,7.0,7.0,88,0.00,,,0.08,WeatherCatV1.22B15,2014-01-11 03:49:00,
2014-01-10 22:54:00,45.4,42.1,29.81,SSE,154,6.0,13.0,88,0.00,,,0.08,WeatherCatV1.22B15,2014-01-11 03:54:00,
2014-01-10 22:59:00,45.3,41.7,29.80,SE,139,5.0,6.0,87,0.00,,,0.08,WeatherCatV1.22B15,2014-01-11 03:59:00,
2014-01-10 23:04:00,45.5,41.9,29.79,East,89,4.0,9.0,87,0.00,,,0.08,WeatherCatV1.22B15,2014-01-11 04:04:00,
2014-01-10 23:09:00,45.6,42.0,29.78,SE,129,7.0,10.0,87,0.00,,,0.08,WeatherCatV1.22B15,2014-01-11 04:09:00,
2014-01-10 23:14:00,45.7,41.8,29.78,ESE,122,3.0,14.0,86,0.00,,,0.08,WeatherCatV1.22B15,2014-01-11 04:14:00,
2014-01-10 23:19:00,45.5,41.6,29.80,SE,146,0.0,2.0,86,0.00,,,0.08,WeatherCatV1.22B15,2014-01-11 04:19:00,
2014-01-10 23:24:00,45.5,41.6,29.80,SW,226,3.0,7.0,86,0.00,,,0.08,WeatherCatV1.22B15,2014-01-11 04:24:00,
2014-01-10 23:29:00,45.6,41.7,29.80,SE,132,0.0,0.0,86,0.00,,,0.08,WeatherCatV1.22B15,2014-01-11 04:29:00,
2014-01-10 23:34:00,45.4,41.5,29.80,SE,130,0.0,3.0,86,0.00,,,0.08,WeatherCatV1.22B15,2014-01-11 04:34:00,
2014-01-10 23:39:00,45.7,41.8,29.80,SSE,148,0.0,1.0,86,0.00,,,0.08,WeatherCatV1.22B15,2014-01-11 04:39:00,
2014-01-10 23:44:00,45.8,41.8,29.79,ESE,121,6.0,10.0,86,0.00,,,0.08,WeatherCatV1.22B15,2014-01-11 04:44:00,
2014-01-10 23:49:00,46.2,41.9,29.79,SE,130,0.0,4.0,85,0.00,,,0.08,WeatherCatV1.22B15,2014-01-11 04:49:00,
2014-01-10 23:54:00,46.1,41.8,29.78,SE,140,0.0,3.0,85,0.00,,,0.08,WeatherCatV1.22B15,2014-01-11 04:54:00,
2014-01-10 23:59:00,46.1,41.8,29.78,SE,133,3.0,7.0,85,0.00,,,0.08,WeatherCatV1.22B15,2014-01-11 04:59:00,